Notices

What's New in latest Release from April 7th, 2021:

- Updated Glossary, including Speed of Maximum Gust, and Total Hourly Precipitation

- Updated national and regional climate services offices contacts and prices information

- Addition of station inventory lists for 1981-2010, 1971-2000, and 1961-1990 Normals.

If you haven't already, please take our survey and provide feedback about our website: https://eccc.sondage-survey.ca/f/LanguageSelection.aspx?s=442ca660-fcf1-47c0-95a9-59707d6fd709

Hourly Data Report for May 09, 2020

TRENTON A
ONTARIO
Current Station Operator: DND

44°07'00.000" N
77°32'00.000" W
86.30 m
6158875
71621
YTR

Download Data

Hourly Data (May 2020)
Hourly Data Report for May 9, 2020
TIME
LST
Temp Definition
°C
Dew Point Definition
°C
Rel Hum Definition
%
Precip. Amount Definition
mm

Wind Dir Definition
10's deg

Wind Spd Definition
km/h
Visibility Definition
km
Stn Press Definition
kPa
Hmdx Definition


Wind Chill Definition


Weather Definition


00:00 -0.9 -7.7 56   31 15 24.1 100.06   -6 Mainly Clear
01:00 -1.3 -8.8 53   31 13 24.1 100.06   -6 Mainly Clear
02:00 -1.8 -9.7 51   31 13 24.1 100.07   -6 Clear
03:00 -2.2 -9.5 53   30 15 24.1 100.07   -7 Clear
04:00 -2.6 -9.1 57   29 15 24.1 100.10   -8 Mainly Clear
05:00 -3.1 -8.9 61   29 9 24.1 100.12   -7 Mainly Clear
06:00 -1.8 -7.9 59   28 15 24.1 100.17   -7 Mainly Clear
07:00 -0.5 -7.9 53   30 15 24.1 100.15   -5 Mostly Cloudy
08:00 0.3 -8.5 47   30 21 24.1 100.14     Cloudy
09:00 0.7 -8.8 45   29 28 24.1 100.15     Cloudy
10:00 1.4 -8.0 46   29 22 24.1 100.17     Snow Showers
11:00 1.4 -6.0 55   31 17 12.9 100.17     Snow Showers
12:00 1.6 -4.8 60   32 21 11.3 100.16     Snow Showers
13:00 0.5 -3.6 71   30 22 16.1 100.15     Snow Showers
14:00 3.9 -6.5 44   30 31 16.1 100.10     Ice Pellets
15:00 5.5 -7.0 37   28 34 24.1 100.10     Mostly Cloudy
16:00 4.7 -8.0 36   31 31 24.1 100.15     Mostly Cloudy
17:00 5.9 -8.0 33   28 30 24.1 100.20     Mostly Cloudy
18:00 4.5 -7.7 38   29 31 24.1 100.27     Cloudy
19:00 4.1 -7.5 40   29 24 24.1 100.32     Cloudy
20:00 3.9 -7.0 42   30 22 24.1 100.36     Cloudy
21:00 3.8 -7.2 41   30 18 24.1 100.42     Cloudy
22:00 3.7 -6.9 43   28 22 24.1 100.44     Cloudy
23:00 3.4 -6.5 45   25 13 24.1 100.45     Cloudy

Notes on Data Quality.

Legend

  • E = Estimated
  • M = Missing
  • NA = Not Available*
  • [empty] = Indicates an unobserved value
Date modified: